Other Public Products
Issued by NWS Grand Forks, ND

Home | Current Version | Previous Version | Graphics & Text | Print | Product List | Glossary On
Versions: 1 2 3 4 5 6 7 8 9 10 11 12 13 14 15 16 17 18 19 20 21 22 23 24 25 26 27 28 29 30 31 32 33 34 35 36 37 38 39 40 41 42 43 44 45 46 47 48 49 50
000
FPUS83 KFGF 060810
OPUFGF
PRAIRIE TO PINES WEATHER ROUNDUP
NATIONAL WEATHER SERVICE EASTERN NORTH DAKOTA/GRAND FORKS ND
300 AM CDT WED MAY 06 2015

 **SATELLITE DATA USED TO AUGMENT SKY COVER AT AUTOMATED STATIONS**
 *****  WEATHER ACROSS EASTERN NORTH DAKOTA  *****

CITY           SKY/WX    TMP DP  RH WIND       PRES   REMARKS
GRAND FORKS    PTCLDY    58  51  78 S10       29.95F
GRAND FORKS AF PTCLDY    58  52  81 SE9       29.95
GRAND CITY NWS   N/A     57 N/A N/A S12         N/A
BUXTON         NOT AVBL
DEVILS LAKE    CLOUDY    59  52  77 SE10      29.90F
FARGO          CLOUDY    61  54  77 SE17G23   29.96F
WAHPETON ARPT  CLOUDY    57  52  82 SE16      29.99S
$$

 *****  WEATHER ACROSS CENTRAL AND WESTERN NORTH DAKOTA  *****

CITY           SKY/WX    TMP DP  RH WIND       PRES   REMARKS
JAMESTOWN      CLOUDY    59  53  80 SE14      29.90F
BISMARCK       MOCLDY    59  31  34 SE8       29.84F
MINOT          CLEAR     53  44  71 SE7       29.81S
MINOT AFB      CLEAR     50  44  78 SE10      29.80S
GARRISON         N/A     56  51  84 SE12      29.81F
WILLISTON      PTCLDY    61  51  70 SE12      29.72F
DICKINSON      MOCLDY    54  51  90 SE9       29.75F
HETTINGER      CLOUDY    57  53  86 SE12      29.79F
$$

 *****  OTHER OBSERVATIONS NORTHEAST NORTH DAKOTA  *****

CITY           SKY/WX    TMP DP  RH WIND       PRES   REMARKS
WALHALLA       FAIR      59  54  82 S10       29.93S
LANGDON        FAIR      57  52  82 S16       29.93S
CAVALIER       FAIR      59  52  77 S13       29.93F
GRAFTON        FAIR      57  54  88 SE10      29.95F
CANDO          FAIR      57  54  88 SE10      29.90F
FORT TOTTEN      N/A     60  54  80 S10       29.95S
ROLLA          NOT AVBL
RUGBY          NOT AVBL
 ***** THE ABOVE OBSERVATIONS ARE NON NWS ARE NOT QUALITY
        CONTROLLED AND MAY MIS-REPORT RAIN FOR SNOW...
$$

 *****  OTHER OBSERVATIONS SOUTHEAST NORTH DAKOTA *****

CITY           SKY/WX    TMP DP  RH WIND       PRES   REMARKS
COOPERSTOWN    NOT AVBL
VALLEY CITY    CLOUDY    57  57 100 S12G20    29.93F
OAKES            N/A     57  57 100 SE14      29.92S FOG
GWINNER        CLOUDY    59  59 100 SE14      29.95F
SHEYENNE NWR     N/A     58  55  91 SE9       29.95S
BUFFALO        NOT AVBL
WYNDMERE       NOT AVBL
 ***** THE ABOVE OBSERVATIONS ARE NON NWS ARE NOT QUALITY
       CONTROLLED AND MAY MIS-REPORT RAIN FOR SNOW...
$$

  *****  WEATHER ACROSS NORTHERN MINNESOTA  *****

CITY           SKY/WX    TMP DP  RH WIND       PRES   REMARKS
FLAG ISLAND    CLEAR     57  41  54 SE10      30.02S
WARROAD        CLEAR     59  45  58 S9        30.01F
ROSEAU         CLEAR     55  39  54 SE6       30.00F
HALLOCK        PTCLDY    57  43  58 SE12      29.96S
THF RVR FALLS  MOCLDY    57  45  62 SE9       30.00S
HALSTAD        NOT AVBL
FOSSTON        CLOUDY    59  45  58 SE7       30.01F
BAUDETTE       CLEAR     53  33  46 SE8       30.04F
WASKISH        PTCLDY    52  39  62 CALM      30.05F
CROOKSTON      PTCLDY    55  48  76 S9        29.98F
$$
  *****  WEATHER ACROSS CENTRAL AND WEST MINNESOTA  *****

CITY           SKY/WX    TMP DP  RH WIND       PRES   REMARKS
BEMIDJI        PTCLDY    56  40  56 SE7       30.03F
PARK RAPIDS    CLOUDY    61  46  57 SE14      30.03F
WADENA         CLOUDY    57  52  82 SE13      30.03F
DETROIT LAKES  CLOUDY    59  54  82 S14       30.01F
MOORHEAD       CLOUDY    61  54  77 S14       29.98F
FERGUS FALLS   CLOUDY    59  54  82 SE14G22   30.00F
ELBOW LAKE     CLOUDY    57  54  90 SE16      30.00F
MORRIS MN      CLOUDY    55  54  94 SE18      30.00F
STAPLES        CLOUDY    55  52  88 SE7       30.05F
WHEATON        CLOUDY    54  52  94 SE22      30.00F
$$
  *****  WEATHER ELSEWHERE ACROSS MINNESOTA  *****

CITY           SKY/WX    TMP DP  RH WIND       PRES   REMARKS
DULUTH         CLOUDY    49  29  46 E6        30.13F
INTRNTL FALLS  CLEAR     45  29  53 SE6       30.08F
ELY            CLEAR     39  27  60 CALM      30.14F
CLOQUET        CLOUDY    46  30  53 E3        30.12F
BRAINERD       LGT RAIN  58  48  69 SE8       30.07F
HIBBING        PTCLDY    38  26  62 CALM      30.11F
ALEXANDRIA     CLOUDY    55  52  89 SE13      30.04F
SAINT CLOUD    CLOUDY    56  53  90 SE13      30.07F
MINNEAPOLIS    CLOUDY    56  54  93 SE9       30.10F FOG
$$

  *****  WEATHER ACROSS SOUTH DAKOTA  *****

CITY           SKY/WX    TMP DP  RH WIND       PRES   REMARKS
SIOUX FALLS    CLOUDY    62  59  90 SE12      29.93F
BROOKINGS      CLOUDY    57  57 100 SE15      29.95F
WATERTOWN      CLOUDY    58  56  93 SE9       29.95F FOG
HURON          MOCLDY    61  58  90 SE10      29.88F FOG
SISSETON         N/A     56  55  97 S21       29.95F
ABERDEEN       CLOUDY    60  57  89 SE12      29.89F
MITCHELL       LGT RAIN  63  60  90 SE14      29.88F
PIERRE         CLOUDY    58  57  97 E6        29.81F FOG
MOBRIDGE       CLOUDY    60  58  92 SE12      29.82F FOG
RAPID CITY     LGT RAIN  53  52  96 SE7       29.78F
$$

  *****  SOME WEATHER IN NEARBY STATES *****

CITY           SKY/WX    TMP DP  RH WIND       PRES   REMARKS
GLASGOW MT     PTCLDY    60  46  59 NW14      29.66S
GREAT FALLS MT MOCLDY    44  38  79 W9        29.83R
CHEYENNE WY    LGT RAIN  47  45  93 N9        29.74F FOG
SCOTTSBLUFF NE LGT RAIN  52  32  46 E9        29.73F
OMAHA NE       LGT RAIN  65  62  90 S20       29.94F
DES MOINES IA  MOCLDY    66  62  87 SE5       30.02F FOG
DAVENPORT IA   CLOUDY    55  52  89 E12       30.12F FOG
CHICAGO IL     FOG       46  46 100 NE7       30.18F VSB 1/4
EAU CLAIRE WI  CLOUDY    52  49  89 E7        30.14F
LA CROSSE WI   CLOUDY    56  52  86 E7        30.14F
$$

  *****  SOME NATIONAL WEATHER *****

CITY           SKY/WX    TMP DP  RH WIND       PRES   REMARKS
LA GUARDIA NY  CLOUDY    68  39  34 N6        30.19S
RALEIGH NC     PTCLDY    59  53  80 CALM      30.26S
ATLANTA GA     PTCLDY    64  52  64 E3        30.21F
NEW ORLEANS LA PTCLDY    69  64  84 CALM      30.06F
OKLAHOMA CITY  TSTM      60  57  89 SE16      29.87F
ALBUQUERQUE NM CLOUDY    54  44  69 S7        29.95F
SALT LAKE CITY CLOUDY    56  49  77 SE6       29.82S
LOS ANGELES CA MOCLDY    58  52  80 CALM      29.95F
BOISE ID       PTCLDY    48  24  39 W8        29.87R
SEATTLE WA     CLOUDY    46  43  89 CALM      30.11S
$$

*** WEATHER ACROSS MANITOBA...SASKATCHEWAN AND ONTARIO ***
                ***ONTARIO***

CITY           SKY/WX    TMP DP  RH WIND       PRES   REMARKS
GERALDTON      CLEAR     41  27  56 SW6       30.20S
THUNDER BAY    PTCLDY    34  30  86 NE2       30.20F
SIOUX LOOKOUT  CLEAR     48  28  46 SE6       30.10F
TORONTO        MOCLDY    48  41  76 N5        30.28S
BIG TROUT LK   CLOUDY    36  25  64 E3        30.20R
PICKLE LAKE    NOT AVBL
DRYDEN         CLEAR     54  30  40 S12       30.08F
KENORA         NOT AVBL
$$
                *** MANITOBA***

CITY           SKY/WX    TMP DP  RH WIND       PRES   REMARKS
BRANDON        PTCLDY    55  37  50 SE12      29.85F
DAUPHIN        MOCLDY    61  30  31 SE8       29.82F
ISLAND LAKE    MOCLDY    37  32  81 E7        30.11F
PILOT MOUND      N/A     57  50  77 S16         N/A
THE PAS        MOCLDY    37  30  75 NE7       29.95F
THOMPSON       MOCLDY    36  18  48 E7        30.14S
WINNIPEG       CLEAR     61  39  44 S14       29.95F
LYNN LAKE      LGT RAIN  34  19  55 NE9       30.17R
CHURCHILL      PTCLDY    16  10  79 NW14      30.33R WCI   1
GILLAM         CLEAR     25  18  74 E3        30.26R
$$
                ***SASKATCHEWAN***

CITY           SKY/WX    TMP DP  RH WIND       PRES   REMARKS
ESTEVAN        PTCLDY    48  43  81 E9        29.76F
KINDERSLEY     MOCLDY    54  41  62 SW14      29.66R
LLOYDMINSTER   CLOUDY    46  37  71 NE13G21   29.68R
PRINCE ALBERT  LGT RAIN  43  39  87 E16       29.78S
REGINA         MOCLDY    57  48  72 SE16G22   29.70F


USA.gov is the U.S. government's official web portal to all federal, state and local government web resources and services.